Alma, MI

11:08 AM EST on November 15, 2019 (GMT -0500)
Gratiot Community

Weather History for KAMN - June, 2019

Change the Weather History Date:

Saturday, June 8, 2019

  Actual Average Record
Temperature  
Mean Temperature 66 °F -  
Max Temperature 82 °F 79 °F 93 °F (1959)
Min Temperature 51 °F 54 °F 33 °F (1998)
Cooling Degree Days 2    
Growing Degree Days 16 (Base 50)    
Moisture  
Dew Point 49 °F    
Average Humidity 55    
Maximum Humidity 92    
Minimum Humidity 26    
Precipitation  
Precipitation 0.00 in - - ()
Sea Level Pressure  
Sea Level Pressure 30.09 in    
Wind  
Wind Speed 4 mph (East)    
Max Wind Speed 14 mph    
Max Gust Speed 22 mph    
Visibility 10 miles    
Events      
Averages and records for this station are not official NWS values.
T = Trace of Precipitation, MM = Missing Value Source: NWS Daily Summary

Daily Weather History Graph

Daily Weather History Graph

Search for Another Location

Airport or City:

Astronomy

Jun. 08, 2019 Rise Set
Actual Time 5:58 AM EDT 9:17 PM EDT
Civil Twilight 5:23 AM EDT 9:52 PM EDT
Nautical Twilight 4:37 AM EDT 10:38 PM EDT
Astronomical Twilight 3:41 AM EDT 11:34 PM EDT
Moon 11:29 AM EDT (6/8) 1:15 AM EDT (6/8)
Length of Visible Light 16h 29m
Length of Day
15h 18m
Waxing Crescent, 32% of the Moon is Illuminated
Jun 8
Waxing Crescent
Jun 10
First Quarter
Jun 17
Full
Jun 25
Last Quarter
Jul 2
New

Hourly Weather History & Observations

Time (EDT) Temp. Dew Point Humidity Pressure Visibility Wind Dir Wind Speed Gust Speed Precip Events Conditions
12:19 AM 56.7 °F 50.9 °F 81% 30.08 in 10.0 mi Calm Calm - N/A   Clear
12:37 AM 55.0 °F 51.1 °F 86% 30.08 in 10.0 mi Calm Calm - N/A   Clear
12:55 AM 54.3 °F 50.7 °F 88% 30.09 in 10.0 mi Calm Calm - N/A   Clear
1:15 AM 53.6 °F 50.5 °F 89% 30.09 in 10.0 mi Calm Calm - N/A   Clear
1:35 AM 52.9 °F 50.2 °F 91% 30.09 in 10.0 mi Calm Calm - N/A   Clear
1:58 AM 52.0 °F 49.5 °F 91% 30.09 in 10.0 mi Calm Calm - N/A   Clear
2:16 AM 52.7 °F 50.0 °F 91% 30.09 in 10.0 mi Calm Calm - N/A   Clear
2:35 AM 52.5 °F 50.2 °F 92% 30.09 in 10.0 mi Calm Calm - N/A   Clear
2:36 AM 52.5 °F 50.2 °F 92% 30.09 in 10.0 mi Calm Calm - N/A   Clear
2:55 AM 52.9 °F 50.4 °F 91% 30.09 in 10.0 mi NNE 3.5 mph - N/A   Clear
2:56 AM 52.9 °F 50.5 °F 92% 30.09 in 10.0 mi NNE 3.5 mph - N/A   Clear
3:37 AM 56.3 °F 52.3 °F 87% 30.08 in 10.0 mi Calm Calm - N/A   Clear
3:55 AM 56.1 °F 51.8 °F 85% 30.08 in 10.0 mi Calm Calm - N/A   Clear
4:15 AM 56.8 °F 52.2 °F 84% 30.09 in 10.0 mi Calm Calm - N/A   Clear
4:16 AM 56.8 °F 52.2 °F 84% 30.09 in 10.0 mi Calm Calm - N/A   Clear
4:35 AM 53.8 °F 50.0 °F 87% 30.09 in 10.0 mi Calm Calm - N/A   Clear
4:40 AM 53.4 °F 49.3 °F 86% 30.09 in 10.0 mi Calm Calm - N/A   Clear
4:58 AM 51.1 °F 48.0 °F 89% 30.09 in 10.0 mi NNE 3.5 mph - N/A   Clear
5:16 AM 52.3 °F 49.1 °F 89% 30.09 in 10.0 mi Calm Calm - N/A   Clear
5:35 AM 51.3 °F 48.2 °F 89% 30.09 in 10.0 mi Calm Calm - N/A   Clear
5:55 AM 52.7 °F 49.3 °F 88% 30.09 in 10.0 mi NE 3.5 mph - N/A   Clear
5:56 AM 52.7 °F 49.3 °F 88% 30.09 in 10.0 mi NE 3.5 mph - N/A   Clear
6:19 AM 51.4 °F 48.7 °F 90% 30.09 in 10.0 mi Calm Calm - N/A   Clear
6:37 AM 52.3 °F 49.3 °F 89% 30.10 in 10.0 mi Calm Calm - N/A   Clear
6:55 AM 54.5 °F 51.6 °F 90% 30.10 in 10.0 mi NNE 3.5 mph - N/A   Clear
7:15 AM 58.3 °F 51.8 °F 79% 30.11 in 10.0 mi NE 5.8 mph - N/A   Clear
7:16 AM 58.5 °F 51.8 °F 79% 30.11 in 10.0 mi NE 5.8 mph - N/A   Clear
7:35 AM 59.7 °F 52.3 °F 77% 30.11 in 10.0 mi NE 3.5 mph - N/A   Clear
7:40 AM 59.9 °F 52.7 °F 77% 30.11 in 10.0 mi NE 4.6 mph - N/A   Clear
7:58 AM 61.2 °F 52.9 °F 74% 30.12 in 10.0 mi NE 5.8 mph - N/A   Clear
8:16 AM 62.8 °F 53.2 °F 71% 30.12 in 10.0 mi NE 5.8 mph - N/A   Clear
8:35 AM 65.1 °F 52.2 °F 63% 30.13 in 10.0 mi ENE 8.1 mph - N/A   Clear
8:36 AM 65.3 °F 52.2 °F 62% 30.13 in 10.0 mi East 8.1 mph - N/A   Clear
8:55 AM 67.1 °F 51.4 °F 57% 30.13 in 10.0 mi East 8.1 mph - N/A   Clear
9:19 AM 68.5 °F 51.8 °F 55% 30.13 in 10.0 mi East 8.1 mph - N/A   Clear
9:37 AM 70.2 °F 51.6 °F 52% 30.13 in 10.0 mi East 8.1 mph - N/A   Clear
9:55 AM 71.1 °F 51.4 °F 50% 30.13 in 10.0 mi ENE 9.2 mph - N/A   Clear
9:56 AM 71.2 °F 51.6 °F 50% 30.13 in 10.0 mi ENE 9.2 mph - N/A   Clear
10:15 AM 73.0 °F 50.7 °F 45% 30.13 in 10.0 mi East 11.5 mph - N/A   Clear
10:16 AM 73.0 °F 50.5 °F 45% 30.13 in 10.0 mi East 10.4 mph - N/A   Clear
10:35 AM 74.5 °F 51.1 °F 44% 30.13 in 10.0 mi East 6.9 mph - N/A   Clear
10:58 AM 75.7 °F 48.4 °F 38% 30.12 in 10.0 mi East 11.5 mph 17.3 mph N/A   Clear
11:16 AM 77.0 °F 49.6 °F 38% 30.12 in 10.0 mi East 8.1 mph 16.1 mph N/A   Clear
11:35 AM 77.9 °F 49.3 °F 37% 30.12 in 10.0 mi ESE 8.1 mph 16.1 mph N/A   Clear
11:55 AM 78.8 °F 48.6 °F 34% 30.12 in 10.0 mi East 9.2 mph - N/A   Clear
12:19 PM 79.0 °F 48.4 °F 34% 30.11 in 10.0 mi East 9.2 mph - N/A   Clear
12:37 PM 79.7 °F 48.7 °F 34% 30.11 in 10.0 mi East 6.9 mph 16.1 mph N/A   Clear
12:55 PM 80.4 °F 50.5 °F 35% 30.11 in 10.0 mi East 10.4 mph - N/A   Clear
12:56 PM 80.4 °F 50.4 °F 35% 30.11 in 10.0 mi East 12.7 mph - N/A   Clear
1:15 PM 80.6 °F 49.3 °F 33% 30.11 in 10.0 mi ESE 8.1 mph - N/A   Clear
1:35 PM 80.4 °F 50.5 °F 35% 30.11 in 10.0 mi ENE 11.5 mph 17.3 mph N/A   Clear
1:40 PM 80.4 °F 50.0 °F 34% 30.10 in 10.0 mi East 8.1 mph 16.1 mph N/A   Clear
1:58 PM 80.6 °F 49.6 °F 34% 30.10 in 10.0 mi East 11.5 mph - N/A   Clear
2:16 PM 81.3 °F 50.4 °F 34% 30.09 in 10.0 mi East 13.8 mph 18.4 mph N/A   Clear
2:35 PM 81.7 °F 47.5 °F 30% 30.09 in 10.0 mi East 9.2 mph - N/A   Clear
2:55 PM 80.1 °F 50.2 °F 35% 30.09 in 10.0 mi East 13.8 mph - N/A   Clear
2:56 PM 80.1 °F 50.0 °F 35% 30.09 in 10.0 mi East 12.7 mph - N/A   Clear
3:19 PM 80.2 °F 49.6 °F 34% 30.09 in 10.0 mi East 10.4 mph 17.3 mph N/A   Clear
3:37 PM 82.2 °F 48.9 °F 31% 30.09 in 10.0 mi ESE 9.2 mph 19.6 mph N/A   Clear
3:55 PM 79.9 °F 49.3 °F 34% 30.08 in 10.0 mi East 8.1 mph - N/A   Clear
4:15 PM 80.2 °F 49.6 °F 34% 30.09 in 10.0 mi ESE 10.4 mph 16.1 mph N/A   Clear
4:16 PM 80.2 °F 49.5 °F 34% 30.08 in 10.0 mi East 10.4 mph 16.1 mph N/A   Clear
4:35 PM 81.0 °F 50.4 °F 34% 30.08 in 10.0 mi East 10.4 mph - N/A   Clear
4:58 PM 81.0 °F 48.6 °F 32% 30.08 in 10.0 mi East 12.7 mph 17.3 mph N/A   Clear
5:16 PM 82.0 °F 48.6 °F 31% 30.07 in 10.0 mi East 11.5 mph 18.4 mph N/A   Clear
5:35 PM 81.1 °F 48.0 °F 31% 30.07 in 10.0 mi East 12.7 mph 21.9 mph N/A   Clear
5:55 PM 80.2 °F 45.1 °F 29% 30.08 in 10.0 mi ESE 10.4 mph 16.1 mph N/A   Clear
6:19 PM 80.8 °F 43.2 °F 26% 30.07 in 10.0 mi ESE 13.8 mph 21.9 mph N/A   Clear
6:37 PM 80.2 °F 42.6 °F 26% 30.07 in 10.0 mi ESE 12.7 mph 18.4 mph N/A   Clear
6:55 PM 79.3 °F 41.5 °F 26% 30.07 in 10.0 mi East 11.5 mph 17.3 mph N/A   Clear
7:15 PM 78.1 °F 43.0 °F 29% 30.07 in 10.0 mi East 10.4 mph - N/A   Clear
7:35 PM 77.2 °F 45.7 °F 33% 30.07 in 10.0 mi East 6.9 mph - N/A   Clear
7:40 PM 77.2 °F 44.4 °F 31% 30.07 in 10.0 mi East 9.2 mph - N/A   Clear
7:58 PM 76.3 °F 45.5 °F 33% 30.06 in 10.0 mi East 9.2 mph - N/A   Clear
8:16 PM 75.0 °F 47.8 °F 38% 30.06 in 10.0 mi East 4.6 mph - N/A   Clear
8:35 PM 73.9 °F 46.9 °F 38% 30.06 in 10.0 mi East 6.9 mph - N/A   Clear
8:36 PM 74.1 °F 46.8 °F 38% 30.06 in 10.0 mi East 6.9 mph - N/A   Clear
8:55 PM 73.9 °F 46.2 °F 37% 30.06 in 10.0 mi East 6.9 mph - N/A   Clear
8:56 PM 73.9 °F 46.2 °F 37% 30.06 in 10.0 mi East 6.9 mph - N/A   Clear
9:19 PM 72.3 °F 44.8 °F 37% 30.06 in 10.0 mi East 5.8 mph - N/A   Clear
9:37 PM 71.4 °F 44.6 °F 38% 30.06 in 10.0 mi East 5.8 mph - N/A   Clear
9:55 PM 71.6 °F 43.7 °F 37% 30.06 in 10.0 mi East 4.6 mph - N/A   Clear
9:56 PM 71.4 °F 43.9 °F 37% 30.06 in 10.0 mi East 4.6 mph - N/A   Clear
10:15 PM 70.5 °F 44.6 °F 39% 30.07 in 10.0 mi East 5.8 mph - N/A   Clear
10:35 PM 65.8 °F 50.0 °F 57% 30.07 in 10.0 mi East 5.8 mph - N/A   Clear
10:58 PM 68.9 °F 45.1 °F 42% 30.08 in 10.0 mi East 4.6 mph - N/A   Clear
11:16 PM 67.3 °F 46.2 °F 47% 30.07 in 10.0 mi East 3.5 mph - N/A   Clear
11:35 PM 66.4 °F 47.7 °F 51% 30.08 in 10.0 mi East 3.5 mph - N/A   Clear
11:36 PM 66.4 °F 47.8 °F 51% 30.08 in 10.0 mi East 4.6 mph - N/A   Clear
11:55 PM 65.3 °F 48.9 °F 55% 30.08 in 10.0 mi ENE 4.6 mph - N/A   Clear
11:56 PM 65.3 °F 48.9 °F 55% 30.08 in 10.0 mi ENE 4.6 mph - N/A   Clear